Location: Vancouver
(49.2500°N, 123.1330°W)
Time: 18:55:12
(UTC-07:00)

ISS - All Passes

Search period start: 19 September 2014 00:00
Search period end: 29 September 2014 00:00
Orbit: 414 x 417 km, 51.6° (Epoch: 19 September)

Date Brightness Start Highest point End Pass type
(mag) Time Alt. Az. Time Alt. Az. Time Alt. Az.
19 Sep - 04:10:23 10° SW 04:13:32 41° SSE 04:16:42 10° ENE visible
19 Sep - 05:46:52 10° W 05:50:12 65° NNW 05:53:31 10° ENE visible
19 Sep - 07:23:50 10° WNW 07:27:09 59° N 07:30:27 10° E daylight
19 Sep - 09:00:37 10° WNW 09:03:53 51° SSW 09:07:07 10° SE daylight
19 Sep - 10:39:08 10° WSW 10:39:58 11° SW 10:40:49 10° SSW daylight
20 Sep - 03:21:57 10° SSW 03:24:50 28° SE 03:27:44 10° E visible
20 Sep - 04:58:00 10° WSW 05:01:20 79° NNW 05:04:41 10° ENE visible
20 Sep - 06:34:58 10° WNW 06:38:15 55° N 06:41:33 10° E daylight
20 Sep - 08:11:46 10° WNW 08:15:06 74° SSW 08:18:25 10° ESE daylight
20 Sep - 09:49:09 10° W 09:51:23 17° SW 09:53:36 10° S daylight
21 Sep - 02:33:45 10° S 02:36:09 19° SE 02:38:33 10° E night (unlit)
21 Sep - 04:09:08 10° WSW 04:12:28 79° SSE 04:15:49 10° ENE visible
21 Sep - 05:46:02 10° W 05:49:20 54° N 05:52:37 10° ENE visible
21 Sep - 07:22:53 10° WNW 07:26:14 84° NNE 07:29:34 10° ESE daylight
21 Sep - 08:59:53 10° W 09:02:42 25° SW 09:05:30 10° SSE daylight
22 Sep - 01:46:08 10° SSE 01:47:29 12° SE 01:48:49 10° ESE night (unlit)
22 Sep - 03:20:21 10° SW 03:23:37 56° SSE 03:26:54 10° ENE visible
22 Sep - 04:57:04 10° W 05:00:22 58° N 05:03:40 10° ENE visible
22 Sep - 06:33:59 10° WNW 06:37:19 67° NNE 06:40:38 10° E daylight
22 Sep - 08:10:48 10° W 08:13:55 37° SSW 08:17:02 10° SE daylight
23 Sep - 02:31:39 10° SW 02:34:46 38° SSE 02:37:53 10° E night (unlit)
23 Sep - 04:08:03 10° W 04:11:23 67° NNW 04:14:42 10° ENE visible
23 Sep - 05:45:01 10° WNW 05:48:19 58° N 05:51:37 10° E visible
23 Sep - 07:21:47 10° WNW 07:25:04 56° SSW 07:28:20 10° SE daylight
23 Sep - 08:59:53 10° WSW 09:01:12 12° SW 09:02:30 10° SSW daylight
24 Sep - 01:43:07 10° SSW 01:45:55 25° SE 01:48:45 10° E night (unlit)
24 Sep - 03:19:02 10° WSW 03:22:23 83° NNW 03:25:44 10° ENE visible
24 Sep - 04:56:00 10° WNW 04:59:17 54° N 05:02:34 10° E visible
24 Sep - 06:32:47 10° WNW 06:36:08 79° SSW 06:39:27 10° ESE daylight
24 Sep - 08:10:03 10° W 08:12:27 18° SW 08:14:49 10° S daylight
25 Sep - 00:54:52 10° S 00:57:06 17° SE 00:59:21 10° E night (unlit)
25 Sep - 02:30:03 10° WSW 02:33:23 74° SSE 02:36:43 10° ENE night (unlit)
25 Sep - 04:06:55 10° W 04:10:12 55° N 04:13:30 10° ENE visible
25 Sep - 05:43:46 10° WNW 05:47:07 80° NNE 05:50:27 10° ESE visible
25 Sep - 07:20:43 10° W 07:23:36 27° SW 07:26:29 10° SSE daylight
26 Sep - 00:07:27 10° SSE 00:08:18 11° SE 00:09:10 10° ESE night (unlit)
26 Sep - 01:41:09 10° SW 01:44:23 51° SSE 01:47:39 10° ENE night (unlit)
26 Sep - 03:17:48 10° W 03:21:06 60° N 03:24:25 10° ENE visible
26 Sep - 04:54:43 10° WNW 04:58:02 65° NNE 05:01:22 10° E visible
26 Sep - 06:31:31 10° WNW 06:34:41 41° SSW 06:37:50 10° SE visible
27 Sep - 00:52:21 10° SW 00:55:24 34° SSE 00:58:29 10° E night (unlit)
27 Sep - 02:28:39 10° W 02:31:59 70° NNW 02:35:19 10° ENE night (unlit)
27 Sep - 04:05:36 10° WNW 04:08:54 57° N 04:12:12 10° E visible
27 Sep - 05:42:22 10° WNW 05:45:40 61° SSW 05:48:57 10° SE visible
27 Sep - 07:20:10 10° WSW 07:21:50 13° SW 07:23:29 10° SSW daylight
28 Sep - 00:03:44 10° SSW 00:06:26 23° SE 00:09:09 10° E night (unlit)
28 Sep - 01:39:30 10° WSW 01:42:51 88° NNW 01:46:12 10° ENE night (unlit)
28 Sep - 03:16:26 10° WNW 03:19:43 54° N 03:23:00 10° E visible
28 Sep - 04:53:14 10° WNW 04:56:35 84° SSW 04:59:55 10° ESE visible
28 Sep - 06:30:23 10° W 06:32:55 20° SW 06:35:27 10° S visible
28 Sep - 23:15:28 10° S 23:17:29 15° SE 23:19:31 10° E night (unlit)
